Location: Chevoux
(46.3801°N, 4.9476°E)
Time: 22:01:16
(UTC+00:00)

IRS-1C Rocket - Pass Details

Date: 28 January 2021
Orbit: 801 x 805 km, 99.0° (Epoch: 03 March)

Event Time Altitude Azimuth Distance (km) Brightness Sun altitude
Rises 17:41:37 0° 154° (SSE) 3,298 7.2 -11.0°
Reaches altitude 10° 17:43:57 10° 152° (SSE) 2,372 6.4 -11.4°
Maximum altitude 17:49:08 65° 71° (ENE) 878 4.0 -12.2°
Drops below altitude 10° 17:54:21 10° 351° (N) 2,389 6.5 -13.1°
Sets 17:56:43 0° 348° (NNW) 3,324 7.3 -13.5°
